Home > Time Zones > World Clock > Weather > U.S.A. > Waco > Past weeks

Flag for U.S.A. Weather past 2 weeks in Waco, Texas, U.S.A.

Now
81 °F

Sunny.


Feels Like: 85 °F
Forecast: 71 / 84 °F
Wind: 7 mph from South

Location: Waco Regional Airport

Current Time: May 27, 2015 at 6:10:45 PM

Latest Report: May 27, 2015 at 5:51 PM


Visibility: 10 mi

Pressure: 29.98 "Hg

Humidity: 72%

Dew point: 71 °F

Location of WacoLocation

Historic Weather in Waco — Graph

°F

Waco temperature yesterday

Maximum temperature yesterday: 88 °F (at 4:51 PM)
Minimum temperature yesterday: 65 °F (at 3:51 AM)
Average temperature yesterday: 76 °F

Past Weeks' High & Low Weather Summary

 TemperatureHumidityPressure
High89 °F (May 20, 3:51 PM)100% (May 14, 6:51 AM)30.17 "Hg (May 14, 6:51 AM)
Low61 °F (May 21, 6:51 AM)52% (May 20, 3:51 PM)29.74 "Hg (May 16, 6:51 PM)
Average72 °F85%29.98 "Hg
* Reported May 12 5:03 PM — May 27 4:51 PM, Waco, Weather by CustomWeather, © 2015

Note: Actual official high and low records may vary slightly from our data, if they occured in-between our weather recording intervals... More about our weather records

Advertising

Waco weather history for previous 24 hours

 ConditionsComfort  
Time TempWeatherWind HumidityBarometerVisibility
4:51 PM
Wed, May 27
84 °FSunny.14 mph63%29.98 "Hg10 mi
3:51 PM87 °FPassing clouds.12 mph59%30.00 "Hg10 mi
2:51 PM85 °FBroken clouds.8 mph63%30.02 "Hg10 mi
1:51 PM84 °FPartly sunny.8 mph67%30.03 "Hg10 mi
12:51 PM83 °FPassing clouds.8 mph65%30.06 "Hg10 mi
11:51 AM79 °FSunny.6 mph67%30.07 "Hg10 mi
10:51 AM76 °FPassing clouds.9 mph69%30.07 "Hg10 mi
9:51 AM73 °FPassing clouds.8 mph79%30.08 "Hg10 mi
8:51 AM69 °FSunny.12 mph84%30.06 "Hg10 mi
7:51 AM66 °FSunny.7 mph93%30.03 "Hg10 mi
6:51 AM63 °FClear.No wind93%30.01 "Hg10 mi
5:51 AM63 °FClear.6 mph93%29.99 "Hg10 mi
4:51 AM65 °FPassing clouds.10 mph91%29.93 "Hg10 mi
3:58 AM65 °FLight rain. Passing clouds.14 mph94%30.03 "Hg10 mi
2:51 AM65 °FPassing clouds.7 mph91%30.03 "Hg10 mi
2:00 AM65 °FThundershowers. Passing clouds.14 mph91%30.07 "Hg10 mi
12:59 AM64 °FThunderstorms. Fog.20 mph97%30.08 "Hg2 mi
11:51 PM
Tue, May 26
77 °FThundershowers. Overcast.8 mph85%30.03 "Hg10 mi
10:51 PM78 °FClear.13 mph82%29.98 "Hg10 mi
9:51 PM79 °FClear.17 mph79%29.92 "Hg10 mi
8:51 PM80 °FSunny.15 mph79%29.90 "Hg10 mi
7:51 PM82 °FSunny.10 mph72%29.92 "Hg10 mi
6:51 PM84 °FPassing clouds.10 mph65%29.90 "Hg10 mi
Weather by CustomWeather, © 2015

See weather overviewHow to use our weather pages